This demonstration page uses our WeatherBlox Daily Observations layout. Learn more.

Left ArrowRight Arrow

39.51506, -84.39828

Hourly Observations for May 13, 2017

Temp ( °F °C ) Dew Point ( °F °C ) Humidity (%) Winds ( mph kmh ) Pressure ( in mb ) Visibility ( mi km ) Precip ( " mm )
12:15 am 00:15 Clear 55 12.5 47 8.5 77 77 N N/A 29.91 1013 10 16 N/A
12:35 am 00:35 Clear 52 11 45 7 77 77 N 3 6 29.91 1013 10 16 N/A
12:55 am 00:55 Clear 52 11 44 6.8 76 76 N 5 7 29.91 1013 10 16 N/A
1:15 am 01:15 Clear 51 10.8 44 6.6 76 76 N N/A 29.91 1013 10 16 N/A
1:35 am 01:35 Clear 49 9.6 44 6.4 81 81 N N/A 29.91 1013 7 11 N/A
1:55 am 01:55 Clear 49 9.6 44 6.5 81 81 N N/A 29.91 1013 7 11 N/A
2:15 am 02:15 Clear 49 9.6 44 6.6 82 82 N N/A 29.91 1013 7 11 N/A
2:35 am 02:35 Hazy 49 9.6 44 6.8 83 83 N N/A 29.91 1013 5 8 N/A
2:55 am 02:55 Clear 49 9.6 44 6.8 83 83 N N/A 29.91 1013 10 16 N/A
3:15 am 03:15 Clear 49 9.6 44 6.7 82 82 N N/A 29.91 1013 10 16 N/A
3:35 am 03:35 Clear 49 9.3 44 6.6 83 83 N N/A 29.91 1013 7 11 N/A
3:55 am 03:55 Hazy 47 8.2 42 5.5 83 83 N N/A 29.91 1013 5 8 N/A
4:15 am 04:15 Clear 48 8.8 43 6 83 83 N N/A 29.91 1013 7 11 N/A
4:35 am 04:35 Hazy 47 8.2 42 5.6 84 84 N N/A 29.91 1013 3 4 N/A
4:55 am 04:55 Hazy 47 8.2 42 5.6 84 84 N N/A 29.91 1013 5 8 N/A
5:15 am 05:15 Mostly Cloudy with Fog 43 6.1 39 3.7 85 85 N N/A 29.91 1013 0 0 N/A
5:35 am 05:35 Clear with Mist and Fog 44 6.8 40 4.4 85 85 N N/A 29.91 1013 4 6 N/A
5:55 am 05:55 Mostly Cloudy with Haze 45 7.1 40 4.6 84 84 N N/A 29.91 1013 0 0 N/A
6:15 am 06:15 Mostly Cloudy with Fog 44 6.7 40 4.4 85 85 N N/A 29.91 1013 1 1 N/A
6:35 am 06:35 Mostly Cloudy with Fog 42 5.5 38 3.1 85 85 N N/A 29.94 1014 5 8 N/A
6:55 am 06:55 Mostly Cloudy with Fog 44 6.7 40 4.4 85 85 N N/A 29.94 1014 1 1 N/A
7:15 am 07:15 Mostly Cloudy with Haze 44 6.9 40 4.6 85 85 N N/A 29.94 1014 1 1 N/A
7:35 am 07:35 Sunny with Mist and Fog 49 9.6 45 7.2 85 85 N N/A 29.94 1014 4 6 N/A
7:55 am 07:55 Sunny with Mist and Fog 49 9.6 45 7.2 85 85 N N/A 29.94 1014 5 8 N/A
8:15 am 08:15 Sunny 51 10.3 46 7.8 85 85 N N/A 29.94 1014 10 16 N/A
8:35 am 08:35 Sunny 53 11.8 48 9 83 83 N N/A 29.94 1014 10 16 N/A
8:55 am 08:55 Sunny 55 12.5 47 8.5 77 77 N N/A 29.94 1014 10 16 N/A
9:15 am 09:15 Sunny 57 13.8 48 8.7 72 72 N N/A 29.94 1014 10 16 N/A
9:35 am 09:35 Sunny 59 15.1 48 8.7 66 66 N N/A 29.91 1013 10 16 N/A
9:55 am 09:55 Sunny 60 15.3 46 7.8 61 61 N N/A 29.91 1013 10 16 N/A
10:15 am 10:15 Sunny 62 16.6 44 6.4 51 51 N N/A 29.91 1013 10 16 N/A
10:35 am 10:35 Sunny 63 17 43 6.1 49 49 N N/A 29.91 1013 10 16 N/A
10:55 am 10:55 Sunny 64 17.9 42 5.4 44 44 N N/A N/A 10 16 N/A
11:15 am 11:15 Sunny 65 18.2 41 5.2 43 43 N N/A 29.91 1013 10 16 N/A
11:35 am 11:35 Sunny 67 19.7 44 6.5 42 42 E 5 7 29.91 1013 10 16 N/A
11:55 am 11:55 Sunny 69 20.8 45 7.3 42 42 N N/A 29.91 1013 10 16 N/A
12:15 pm 12:15 Sunny 69 20.8 46 7.8 43 43 N 5 7 29.91 1013 10 16 N/A
12:35 pm 12:35 Sunny 69 20.8 46 7.6 43 43 N N/A 29.91 1013 10 16 N/A
12:55 pm 12:55 Partly Cloudy 69 20.8 46 7.6 43 43 NW 3 6 29.91 1013 10 16 N/A
1:15 pm 13:15 Mostly Cloudy 69 20.8 44 6.5 40 40 SW 5 7 29.91 1013 10 16 N/A
1:35 pm 13:35 Mostly Cloudy 69 20.8 41 5.2 36 36 N N/A 29.91 1013 10 16 N/A
1:55 pm 13:55 Mostly Cloudy 71 21.7 43 6.2 37 37 NW 3 6 29.91 1013 10 16 N/A
2:15 pm 14:15 Mostly Cloudy 72 22.2 44 6.9 37 37 SW 6 9 29.88 1012 10 16 N/A
2:35 pm 14:35 Partly Cloudy 73 22.7 46 7.7 38 38 W 7 11 29.88 1012 10 16 N/A
2:55 pm 14:55 Partly Cloudy 74 23.6 44 6.6 34 34 NW 7 11 29.88 1012 10 16 N/A
3:15 pm 15:15 Partly Cloudy 71 21.7 40 4.6 33 33 NW 7 11 29.88 1012 10 16 N/A
3:35 pm 15:35 Sunny 74 23.6 41 5.1 30 30 W 7 11 29.88 1012 10 16 N/A
3:55 pm 15:55 Sunny 74 23.6 43 6.1 32 32 NW 5 7 29.88 1012 10 16 N/A
4:15 pm 16:15 Sunny 74 23.6 43 6.1 32 32 WNW 6 9 29.85 1011 10 16 N/A
4:35 pm 16:35 Partly Cloudy 74 23.6 41 5.1 30 30 WSW 5 7 29.85 1011 10 16 N/A
4:55 pm 16:55 Partly Cloudy 74 23.6 40 4.2 28 28 W 7 11 29.85 1011 10 16 N/A
5:15 pm 17:15 Sunny 74 23.6 41 4.9 30 30 WSW 6 9 29.85 1011 10 16 N/A
5:35 pm 17:35 Sunny 74 23.6 40 4.7 29 29 WSW 3 6 29.85 1011 10 16 N/A
5:55 pm 17:55 Sunny 74 23.6 40 4.3 29 29 WSW 9 15 29.85 1011 10 16 N/A
6:15 pm 18:15 Sunny 74 23.6 37 3 26 26 W 6 9 29.85 1011 10 16 N/A
6:35 pm 18:35 Sunny 74 23.6 36 2.4 25 25 W 9 15 29.85 1011 10 16 N/A
6:55 pm 18:55 Sunny 74 23.6 33 0.7 22 22 WSW 13 20 29.85 1011 10 16 N/A
7:15 pm 19:15 Partly Cloudy 74 23.6 37 3 26 26 WNW 5 7 29.85 1011 10 16 N/A
7:35 pm 19:35 Partly Cloudy 73 22.6 39 3.7 29 29 WSW 6 9 29.85 1011 10 16 N/A
7:55 pm 19:55 Mostly Cloudy 71 21.5 38 3.1 30 30 WSW 8 13 29.85 1011 10 16 N/A
8:15 pm 20:15 Partly Cloudy 69 20.8 38 3.2 31 31 WSW 5 7 29.85 1011 10 16 N/A
8:35 pm 20:35 Sunny 69 20.8 43 5.9 38 38 WSW 5 7 29.85 1011 10 16 N/A
8:55 pm 20:55 Clear 63 17 45 7.2 53 53 WSW 5 7 29.85 1011 10 16 N/A
9:15 pm 21:15 Clear 61 16 46 7.9 59 59 W 3 6 29.85 1011 10 16 N/A
9:35 pm 21:35 Clear 60 15.3 47 8.5 64 64 N N/A 29.85 1011 10 16 N/A
9:55 pm 21:55 Clear 60 15.3 49 9.6 69 69 N N/A 29.85 1011 10 16 N/A
10:15 pm 22:15 Clear 57 13.9 47 8.4 70 70 N N/A 29.88 1012 10 16 N/A
10:35 pm 22:35 Clear 57 14 48 9 72 72 N N/A 29.88 1012 10 16 N/A
10:55 pm 22:55 Clear 57 13.8 49 9.5 75 75 N N/A 29.88 1012 10 16 N/A
11:15 pm 23:15 Clear 57 13.8 48 9.1 73 73 N N/A 29.88 1012 10 16 N/A
11:35 pm 23:35 Clear 56 13.2 49 9.4 78 78 N N/A 29.88 1012 10 16 N/A
11:55 pm 23:55 Clear 55 12.5 47 8.6 77 77 N N/A 29.88 1012 10 16 N/A

Powered by AerisWeather